DW9837 Weather Reports


Display with metric or nautical units.
time (UTC)temp
F
wind
direction
speed
MPH
gust
MPH
rain 1hr
in
rain 24hr
in
rain mn
in
humidity
%
barometer
mb
20260906233035 64 260 0.0 0.0 0.00 0.00 0.00 87 1015.2
20260906231534 65 260 0.0 0.0 0.00 0.00 0.00 84 1015.2
20260906230035 66 260 0.0 1.0 0.00 0.00 0.00 83 1015.1
20260906224535 66 338 0.0 1.0 0.00 0.00 0.00 82 1015.2
20260906223034 67 304 0.0 3.0 0.00 0.00 0.00 81 1015.1
20260906221550 67 299 0.0 2.0 0.00 0.00 0.00 80 1015.2
20260906220035 67 233 1.0 4.0 0.00 0.00 0.00 80 1015.0
20260906214531 67 281 0.0 3.0 0.00 0.00 0.00 83 1015.0
20260906213031 66 261 0.0 1.0 0.00 0.00 0.00 81 1015.1
20260906211531 66 289 0.0 1.0 0.00 0.00 0.00 80 1015.0
20260906210030 68 171 0.0 3.0 0.00 0.00 0.00 73 1014.9
20260906204530 68 163 0.0 2.0 0.00 0.00 0.00 71 1014.7
20260906203037 69 317 0.0 4.0 0.00 0.00 0.00 69 1014.6
20260906201529 69 203 0.0 3.0 0.00 0.00 0.00 68 1014.5
20260906200031 69 279 0.0 4.0 0.00 0.00 0.00 68 1014.5
20260906194528 69 191 2.0 5.0 0.00 0.00 0.00 67 1014.5
20260906193028 70 139 2.0 6.0 0.00 0.00 0.00 66 1014.4
20260906191527 71 104 0.0 4.0 0.00 0.00 0.00 65 1014.4
20260906190026 72 59 2.0 5.0 0.00 0.00 0.00 62 1014.6
20260906184525 72 237 2.0 6.0 0.00 0.00 0.00 62 1014.5
20260906183043 71 146 1.0 6.0 0.00 0.00 0.00 62 1014.7
20260906181523 70 357 0.0 5.0 0.00 0.00 0.00 69 1014.8
20260906180022 71 282 1.0 7.0 0.00 0.00 0.00 64 1014.9
20260906174520 71 308 0.0 3.0 0.00 0.00 0.00 67 1015.0
20260906173019 69 126 0.0 1.0 0.00 0.00 0.00 67 1015.2
20260906171521 70 357 0.0 4.0 0.00 0.00 0.00 64 1015.2
20260906170019 70 149 1.0 4.0 0.00 0.00 0.00 63 1015.2
20260906164515 69 96 0.0 2.0 0.00 0.00 0.00 68 1015.2
20260906163014 69 75 0.0 8.0 0.00 0.00 0.00 67 1015.2
20260906161510 67 123 0.0 2.0 0.00 0.00 0.00 69 1015.2
20260906160012 67 70 0.0 2.0 0.00 0.00 0.00 73 1015.4
20260906154505 66 3 0.0 2.0 0.00 0.00 0.00 75 1015.4
20260906153004 66 124 1.0 4.0 0.00 0.00 0.00 76 1015.5
20260906151507 66 71 0.0 3.0 0.00 0.00 0.00 76 1015.5
20260906150103 65 55 0.0 5.0 0.00 0.00 0.00 77 1015.6
20260906144607 65 75 1.0 5.0 0.00 0.00 0.00 78 1015.6
20260906143100 65 47 0.0 6.0 0.00 0.00 0.00 78 1015.6
20260906141605 65 118 2.0 5.0 0.00 0.00 0.00 78 1015.5
20260906140057 64 97 1.0 3.0 0.00 0.00 0.00 78 1015.4
20260906134603 64 4 0.0 4.0 0.00 0.00 0.00 80 1015.3
20260906133101 64 41 0.0 6.0 0.00 0.00 0.00 81 1015.3
20260906131553 64 57 0.0 8.0 0.00 0.00 0.00 82 1015.1
20260906130059 64 52 1.0 3.0 0.00 0.00 0.00 83 1015.0
20260906124550 64 26 0.0 3.0 0.00 0.00 0.00 84 1014.8
20260906123048 63 97 1.0 6.0 0.00 0.00 0.00 85 1014.8
20260906121554 63 360 0.0 2.0 0.00 0.00 0.00 85 1014.7
20260906120044 62 38 0.0 6.0 0.00 0.00 0.00 86 1014.5
20260906114555 62 38 0.0 5.0 0.00 0.00 0.00 86 1014.4
20260906113053 62 324 0.0 3.0 0.00 0.00 0.00 86 1014.2
20260906111540 62 80 0.0 1.0 0.00 0.00 0.00 86 1014.1
20260906110039 62 48 0.0 1.0 0.00 0.00 0.00 87 1013.9
20260906104537 62 57 0.0 3.0 0.00 0.00 0.00 86 1013.6
20260906103035 62 71 0.0 4.0 0.00 0.00 0.00 86 1013.3
20260906101534 62 42 0.0 1.0 0.00 0.00 0.00 86 1013.3
20260906100033 62 46 0.0 1.0 0.00 0.00 0.00 86 1013.1
20260906094535 62 45 0.0 1.0 0.00 0.00 0.00 86 1013.2
20260906093035 62 26 0.0 1.0 0.00 0.00 0.00 85 1012.8
20260906091534 62 24 0.0 1.0 0.00 0.00 0.00 85 1012.8
20260906090029 62 97 0.0 1.0 0.00 0.00 0.00 85 1012.7
20260906084531 62 97 0.0 1.0 0.00 0.00 0.00 84 1012.6
20260906083027 62 53 0.0 1.0 0.00 0.00 0.00 84 1012.7
20260906081539 62 58 0.0 1.0 0.00 0.00 0.00 84 1012.7
20260906080025 62 87 0.0 2.0 0.00 0.00 0.00 85 1012.7
20260906074524 62 27 0.0 1.0 0.00 0.00 0.00 84 1012.6
20260906073022 63 27 0.0 1.0 0.00 0.00 0.00 85 1012.5
20260906071519 63 59 0.0 1.0 0.00 0.00 0.00 83 1012.4
20260906070018 63 47 0.0 1.0 0.00 0.00 0.00 83 1012.6
20260906064517 63 50 0.0 1.0 0.00 0.00 0.00 82 1012.6
20260906063016 63 111 0.0 1.0 0.00 0.00 0.00 82 1012.4
20260906061514 63 12 0.0 2.0 0.00 0.00 0.00 81 1012.4
20260906060021 64 94 0.0 1.0 0.00 0.00 0.00 80 1012.6
20260906054510 64 98 0.0 1.0 0.00 0.00 0.00 81 1012.7
20260906053019 64 98 0.0 1.0 0.00 0.00 0.00 79 1012.6
20260906051507 64 113 0.0 1.0 0.00 0.00 0.00 79 1012.7
20260906050018 65 106 0.0 1.0 0.00 0.00 0.00 79 1013.0
20260906044503 65 74 1.0 4.0 0.00 0.00 0.00 78 1013.1
20260906043002 65 73 0.0 3.0 0.00 0.00 0.00 79 1012.8
20260906041559 65 98 0.0 3.0 0.00 0.00 0.00 80 1012.7
20260906040057 65 99 1.0 2.0 0.00 0.00 0.00 83 1012.6
20260906034556 65 87 0.0 2.0 0.00 0.00 0.00 83 1012.6
20260906033055 65 106 0.0 3.0 0.00 0.00 0.00 84 1012.5
20260906031601 65 113 0.0 3.0 0.00 0.00 0.00 84 1012.5
20260906030054 65 94 0.0 6.0 0.00 0.00 0.00 84 1012.5
20260906024553 65 98 0.0 3.0 0.00 0.00 0.00 84 1012.5
20260906023053 66 83 1.0 3.0 0.00 0.00 0.00 84 1012.5
20260906021552 66 99 0.0 2.0 0.00 0.00 0.00 84 1012.5
20260906020100 66 20 0.0 4.0 0.00 0.00 0.00 84 1012.4
20260906014551 66 105 0.0 4.0 0.00 0.00 0.00 85 1012.4
20260906013050 66 19 0.0 3.0 0.00 0.00 0.00 85 1012.3
20260906011550 67 59 1.0 6.0 0.00 0.00 0.00 84 1012.1
20260906010048 67 73 1.0 6.0 0.00 0.00 0.00 85 1012.2
20260906004547 67 109 0.0 4.0 0.00 0.00 0.00 86 1011.9
20260906003046 67 79 0.0 1.0 0.00 0.00 0.00 88 1011.8
20260906001545 67 79 0.0 1.0 0.00 0.00 0.00 88 1011.8
20260906000045 67 80 0.0 2.0 0.00 0.00 0.00 88 1011.7
20260905234543 67 161 0.0 0.0 0.00 0.00 0.00 88 1011.4